Namest Nad Oslav, Czech Republic

10:32 PM CET on December 10, 2019 (GMT +0100)
Namest

Weather History for LKNA - November, 2019

Change the Weather History Date:

Tuesday, November 12, 2019

  Actual Average Record
Temperature  
Mean Temperature 38 °F -  
Max Temperature 40 °F - - ()
Min Temperature 35 °F - - ()
Degree Days  
Heating Degree Days 28    
Moisture  
Dew Point 39 °F    
Average Humidity 96    
Maximum Humidity 100    
Minimum Humidity 84    
Precipitation  
Precipitation 0.16 in - - ()
Sea Level Pressure  
Sea Level Pressure 29.77 in    
Wind  
Wind Speed 10 mph ()    
Max Wind Speed 18 mph    
Max Gust Speed -    
Visibility 1.0 miles    
Events Fog , Rain    
T = Trace of Precipitation, MM = Missing Value Source: Averaged Metar Reports

Daily Weather History Graph

Daily Weather History Graph

Search for Another Location

Airport or City:

Astronomy

Nov. 12, 2019 Rise Set
Actual Time 7:00 AM CET 4:18 PM CET
Civil Twilight 6:25 AM CET 4:52 PM CET
Nautical Twilight 5:47 AM CET 5:31 PM CET
Astronomical Twilight 5:09 AM CET 6:08 PM CET
Moon 4:40 PM CET (11/12) 6:27 AM CET (11/12)
Length of Visible Light 10h 27m
Length of Day
9h 18m
Full, 100% of the Moon is Illuminated
Nov 12
Full
Nov 12
Full
Nov 19
Last Quarter
Nov 26
New
Dec 4
First Quarter

Hourly Weather History & Observations

Time (CET) Temp. Windchill Dew Point Humidity Pressure Visibility Wind Dir Wind Speed Gust Speed Precip Events Conditions
12:00 AM 42 °F - 39 °F 84% 29.83 in 2 mi SE 15.7 mph - -   Mist
12:39 AM 42.8 °F 34.8 °F 42.8 °F 100% 29.77 in 0.2 mi SE 17.3 mph - N/A Fog Fog
1:00 AM 42 °F - 39 °F 87% 29.83 in 0 mi SE 17.9 mph - - Fog Partial Fog
1:00 AM 42.8 °F 35.1 °F 42.8 °F 100% 29.77 in 0.1 mi SE 16.1 mph - N/A Fog Fog
2:00 AM 42.8 °F 35.1 °F 42.8 °F 100% 29.77 in 0.1 mi SE 16.1 mph - N/A Fog Fog
3:00 AM 42.8 °F 35.1 °F 42.8 °F 100% 29.77 in 0.1 mi SE 16.1 mph - N/A Fog Fog
4:00 AM 42.8 °F 35.8 °F 42.8 °F 100% 29.77 in 0.1 mi SSE 13.8 mph - N/A Fog Fog
5:00 AM 42.8 °F 35.4 °F 42.8 °F 100% 29.80 in 1.2 mi South 15.0 mph - N/A Rain Light Rain
6:00 AM 41 °F - 39 °F 89% 29.84 in 1 mi SSE 15.7 mph - -   Mist
6:00 AM 41.0 °F 32.8 °F 41.0 °F 100% 29.80 in 1.2 mi SSE 16.1 mph - N/A   Overcast
7:00 AM 40 °F - 38 °F 88% 29.85 in 3 mi SSE 11.2 mph - -   Mist
7:00 AM 41.0 °F 34.3 °F 41.0 °F 100% 29.80 in 2.8 mi SSE 11.5 mph - N/A   Overcast
7:36 AM 41.0 °F 35.8 °F 41.0 °F 100% 29.80 in 1.2 mi SSE 8.1 mph - N/A Rain Light Rain
8:00 AM 39 °F - 37 °F 88% 29.86 in 1 mi SE 8.9 mph - - Rain Light Rain
8:06 AM 39.2 °F 33.0 °F 39.2 °F 100% 29.80 in 0.4 mi SSE 9.2 mph - N/A Fog , Rain Light Rain
9:00 AM 39.2 °F 34.2 °F 39.2 °F 100% 29.80 in 0.2 mi South 6.9 mph - N/A Fog , Rain Light Rain
10:00 AM 37.4 °F 34.9 °F 37.4 °F 100% 29.80 in 0.4 mi SSE 3.5 mph - N/A Fog , Rain Light Rain
10:14 AM 37.4 °F 34.9 °F 37.4 °F 100% 29.80 in 0.3 mi South 3.5 mph - N/A Fog Light Drizzle
11:00 AM 38 °F - 35 °F 87% 29.85 in 0 mi East 4.5 mph - - Rain Light Drizzle
12:00 PM 38 °F - 36 °F 87% 29.82 in 0 mi East 4.5 mph - - Fog Heavy Fog
12:00 PM 37.4 °F 33.8 °F 37.4 °F 100% 29.77 in 0.1 mi East 4.6 mph - N/A Fog Fog
1:00 PM 39.2 °F 35.0 °F 39.2 °F 100% 29.77 in 0.1 mi ESE 5.8 mph - N/A Fog Fog
2:00 PM 37.4 °F - 37.4 °F 100% 29.74 in 0.1 mi Variable 1.2 mph - N/A Fog Fog
3:00 PM 39.2 °F - 39.2 °F 100% 29.74 in 0.3 mi Variable 2.3 mph - N/A Fog , Rain Light Rain
3:28 PM 39.2 °F 37.0 °F 39.2 °F 100% 29.71 in 0.6 mi NNE 3.5 mph - N/A Rain Light Rain
4:00 PM 38 °F - 36 °F 90% 29.77 in 1 mi North 2.2 mph - - Rain Light Rain
4:00 PM 39.2 °F 37.0 °F 39.2 °F 100% 29.71 in 0.9 mi North 3.5 mph - N/A Rain Light Rain
5:00 PM 38 °F - 36 °F 91% 29.76 in 1 mi North 4.5 mph - - Rain Light Rain
5:00 PM 39.2 °F 37.0 °F 39.2 °F 100% 29.71 in 1.2 mi North 3.5 mph - N/A Rain Light Rain
7:00 PM 38 °F - 35 °F 86% 29.73 in 2 mi NW 8.9 mph - - Rain Light Rain
7:00 PM 39.2 °F 33.6 °F 39.2 °F 100% 29.65 in 2.5 mi NW 8.1 mph - N/A Rain Light Rain
9:00 PM 36 °F - 34 °F 89% 29.71 in 1 mi NW 8.9 mph - - Rain Light Rain
10:00 PM 36 °F - 33 °F 87% 29.73 in 3 mi NW 8.9 mph - - Rain Light Rain
10:00 PM 37.4 °F 30.3 °F 37.4 °F 100% 29.65 in 3.1 mi NW 10.4 mph - N/A Rain Light Rain
11:00 PM 35 °F - 33 °F 88% 29.71 in 2 mi NW 8.9 mph - - Rain Light Rain
11:00 PM 35.6 °F 28.0 °F 35.6 °F 100% 29.62 in 2.5 mi NW 10.4 mph - N/A Rain Light Rain